Weather History for North Adams, MA

Change the Weather History Date:

Sunday, January 12, 2014

  Actual Average Record
Temperature  
Mean Temperature 39 °F -  
Max Temperature 43 °F 28 °F 50 °F (2006)
Min Temperature 34 °F 13 °F 1 °F (2001)
Degree Days  
Heating Degree Days 26    
Moisture  
Dew Point 27 °F    
Average Humidity 67    
Maximum Humidity 82    
Minimum Humidity 59    
Precipitation  
Precipitation 0.02 in - - ()
Sea Level Pressure  
Sea Level Pressure 29.68 in    
Wind  
Wind Speed 12 mph (West)    
Max Wind Speed 21 mph    
Max Gust Speed 37 mph    
Visibility 10 miles    
Events Rain    
Averages and records for this station are not official NWS values.
T = Trace of Precipitation, MM = Missing Value Source: NWS Daily Summary

Daily Weather History Graph

Daily Weather History Graph

Search for Another Location

Airport:

Trip Planner

Search our weather history database for the weather conditions in past years. The results will help you decide how hot, cold, wet, or windy it might be!

Date:

Astronomy

Jan. 12, 2014 Rise Set
Actual Time 7:21 AM EST 4:40 PM EST
Civil Twilight 6:50 AM EST 5:12 PM EST
Nautical Twilight 6:15 AM EST 5:47 PM EST
Astronomical Twilight 5:41 AM EST 6:21 PM EST
Moon 2:07 PM EST (1/12) 4:17 AM EST (1/12)
Length of Visible Light 10h 22m
Length of Day
9h 19m
Waxing Gibbous, 89% of the Moon is Illuminated
Jan 12
Waxing Gibbous
Jan 15
Full
Jan 24
Last Quarter
Jan 30
New
Feb 6
First Quarter

Hourly Weather History & Observations

Time (EST) Temp. Windchill Dew Point Humidity Pressure Visibility Wind Dir Wind Speed Gust Speed Precip Events Conditions
12:52 AM 43.0 °F 38.2 °F 37.9 °F 82% 29.37 in 10.0 mi WSW 8.1 mph - 0.02 in Rain Light Rain
1:52 AM 42.1 °F 36.1 °F 36.0 °F 79% 29.40 in 10.0 mi West 10.4 mph 17.3 mph 0.00 in   Overcast
2:52 AM 41.0 °F 35.8 °F 33.1 °F 73% 29.43 in 10.0 mi West 8.1 mph - N/A   Mostly Cloudy
3:52 AM 41.0 °F 35.8 °F 32.0 °F 70% 29.45 in 10.0 mi West 8.1 mph 18.4 mph N/A   Overcast
4:32 AM 39.2 °F 32.5 °F 30.2 °F 70% 29.46 in 10.0 mi West 10.4 mph 20.7 mph N/A   Overcast
4:52 AM 39.0 °F 32.8 °F 28.9 °F 67% 29.48 in 10.0 mi WNW 9.2 mph 17.3 mph N/A   Overcast
5:52 AM 37.9 °F 30.9 °F 28.0 °F 68% 29.52 in 10.0 mi WNW 10.4 mph 19.6 mph N/A   Overcast
6:52 AM 37.0 °F 28.5 °F 27.0 °F 67% 29.54 in 10.0 mi West 13.8 mph 29.9 mph N/A   Overcast
7:32 AM 37.4 °F 27.5 °F 26.6 °F 65% 29.56 in 10.0 mi West 18.4 mph 34.5 mph N/A   Overcast
7:52 AM 37.0 °F 27.4 °F 27.0 °F 67% 29.58 in 10.0 mi West 17.3 mph 36.8 mph N/A   Overcast
8:25 AM 37.4 °F 29.8 °F 26.6 °F 65% 29.59 in 10.0 mi West 11.5 mph 26.5 mph N/A   Overcast
8:47 AM 37.4 °F 29.8 °F 26.6 °F 65% 29.61 in 10.0 mi West 11.5 mph 25.3 mph N/A   Overcast
8:52 AM 37.0 °F 28.9 °F 28.0 °F 70% 29.62 in 10.0 mi West 12.7 mph 21.9 mph N/A   Overcast
9:12 AM 37.4 °F 28.2 °F 26.6 °F 65% 29.62 in 10.0 mi West 16.1 mph 28.8 mph N/A   Overcast
9:39 AM 37.4 °F 29.3 °F 28.4 °F 70% 29.64 in 10.0 mi West 12.7 mph 20.7 mph N/A   Overcast
9:52 AM 37.0 °F 29.3 °F 28.0 °F 70% 29.66 in 10.0 mi West 11.5 mph 26.5 mph N/A   Overcast
10:52 AM 37.0 °F 28.9 °F 28.0 °F 70% 29.68 in 10.0 mi West 12.7 mph 20.7 mph N/A   Overcast
11:41 AM 37.4 °F 26.9 °F 28.4 °F 70% 29.67 in 10.0 mi West 20.7 mph 28.8 mph N/A   Overcast
11:52 AM 37.0 °F 27.4 °F 27.0 °F 67% 29.69 in 10.0 mi West 17.3 mph 32.2 mph N/A   Overcast
12:52 PM 37.0 °F 26.7 °F 28.0 °F 70% 29.71 in 10.0 mi West 19.6 mph 33.4 mph N/A   Overcast
1:52 PM 37.0 °F 28.1 °F 26.1 °F 65% 29.73 in 10.0 mi West 15.0 mph 27.6 mph N/A   Overcast
2:00 PM 37.4 °F 29.3 °F 26.6 °F 65% 29.70 in 10.0 mi West 12.7 mph 28.8 mph N/A   Overcast
2:52 PM 37.0 °F 27.7 °F 26.1 °F 65% 29.76 in 10.0 mi West 16.1 mph 26.5 mph N/A   Overcast
3:52 PM 36.0 °F 26.7 °F 25.0 °F 64% 29.81 in 10.0 mi West 15.0 mph - N/A   Overcast
4:52 PM 36.0 °F 28.0 °F 25.0 °F 64% 29.85 in 10.0 mi West 11.5 mph 18.4 mph N/A   Overcast
5:52 PM 36.0 °F 27.1 °F 23.0 °F 59% 29.88 in 10.0 mi WNW 13.8 mph 28.8 mph N/A   Overcast
6:52 PM 35.1 °F 24.8 °F 24.1 °F 64% 29.91 in 10.0 mi West 17.3 mph 29.9 mph N/A   Overcast
7:52 PM 35.1 °F 23.8 °F 23.0 °F 61% 29.94 in 10.0 mi West 20.7 mph 31.1 mph N/A   Overcast
8:52 PM 35.1 °F 24.8 °F 21.9 °F 59% 29.96 in 10.0 mi West 17.3 mph 28.8 mph N/A   Overcast
9:52 PM 35.1 °F 25.2 °F 21.9 °F 59% 29.98 in 10.0 mi West 16.1 mph 24.2 mph N/A   Overcast
10:52 PM 35.1 °F 28.6 °F 21.9 °F 59% 29.99 in 10.0 mi WNW 8.1 mph - N/A   Overcast
11:52 PM 34.0 °F 27.2 °F 21.9 °F 61% 30.00 in 10.0 mi West 8.1 mph - N/A   Overcast